Location: Newark
(21.1200°N, 73.4000°E)
Time: 02:33:46
(UTC+00:00)

SR - Pass Details

Date: 30 January 2020
Orbit: 575 x 880 km, 66.7° (Epoch: 26 February)

Event Time Altitude Azimuth Distance (km) Brightness Sun altitude
Rises 16:30:09 0° 246° (WSW) 3,358 ? -50.0°
Enters shadow 16:32:13 - 258° (WSW) 2,806 ? -50.5°
Reaches altitude 10° 16:33:48 10° 270° (W) 2,473 - -50.8°
Maximum altitude 16:36:48 14° 302° (WNW) 2,203 - -51.5°
Drops below altitude 10° 16:39:52 10° 333° (NNW) 2,524 - -52.3°
Sets 16:43:41 0° 357° (N) 3,473 - -53.1°
